Weather History for KMOT - November, 2011

Change the Weather History Date:

Thursday, November 24, 2011

  Actual Average Record
Temperature  
Mean Temperature 45 °F 24 °F  
Max Temperature 57 °F 32 °F 59 °F (1984)
Min Temperature 33 °F 16 °F -14 °F (1977)
Degree Days  
Heating Degree Days 20 41  
Month to date heating degree days 805 839  
Since 1 July heating degree days 1474 1799  
Moisture  
Dew Point 30 °F    
Average Humidity 63    
Maximum Humidity 89    
Minimum Humidity 36    
Precipitation  
Precipitation 0.00 in 0.02 in 0.26 in (1958)
Month to date precipitation 0.19 0.65  
Year to date precipitation 22.75 16.71  
Sea Level Pressure  
Sea Level Pressure 29.66 in    
Wind  
Wind Speed 11 mph (WSW)    
Max Wind Speed 20 mph    
Max Gust Speed 24 mph    
Visibility 9 miles    
Events      
T = Trace of Precipitation, MM = Missing Value Source: NWS Daily Summary

Daily Weather History Graph

Daily Weather History Graph

Search for Another Location

Airport or City:

Trip Planner

Search our weather history database for the weather conditions in past years. The results will help you decide how hot, cold, wet, or windy it might be!

Date:

Astronomy

Nov. 24, 2011 Rise Set
Actual Time 8:05 AM CST 4:57 PM CST
Civil Twilight 7:30 AM CST 5:32 PM CST
Nautical Twilight 6:51 AM CST 6:11 PM CST
Astronomical Twilight 6:14 AM CST 6:48 PM CST
Moon 7:27 AM CST (11/24) 4:27 PM CST (11/24)
Length of Visible Light 10h 02m
Length of Day
8h 52m
Waning Crescent, 0% of the Moon is Illuminated
Nov 24
Waning Crescent
Nov 25
New
Dec 2
First Quarter
Dec 10
Full
Dec 17
Last Quarter

Hourly Weather History & Observations

Time (CST) Temp. Windchill Dew Point Humidity Pressure Visibility Wind Dir Wind Speed Gust Speed Precip Events Conditions
12:54 AM 45.0 °F 38.5 °F 30.9 °F 58% 29.61 in 10.0 mi SSW 13.8 mph - N/A   Clear
1:54 AM 45.0 °F 38.5 °F 30.0 °F 56% 29.61 in 10.0 mi SSW 13.8 mph - N/A   Clear
2:54 AM 45.0 °F 38.2 °F 30.0 °F 56% 29.60 in 10.0 mi SSW 15.0 mph - N/A   Clear
3:54 AM 44.6 °F 38.1 °F 30.2 °F 57% 29.58 in 10.0 mi SSW 13.8 mph - N/A   Clear
4:54 AM 42.8 °F 35.4 °F 30.2 °F 61% 29.57 in 10.0 mi SSW 15.0 mph - N/A   Clear
5:54 AM 44.1 °F 37.4 °F 28.9 °F 55% 29.61 in 10.0 mi SW 13.8 mph - N/A   Clear
6:54 AM 43.0 °F 38.2 °F 28.9 °F 58% 29.60 in 10.0 mi WSW 8.1 mph - N/A   Clear
7:54 AM 42.1 °F 35.2 °F 28.0 °F 58% 29.62 in 10.0 mi SSW 12.7 mph - N/A   Clear
8:54 AM 39.9 °F 32.1 °F 28.9 °F 65% 29.63 in 10.0 mi SSW 13.8 mph - N/A   Clear
9:54 AM 42.1 °F 34.5 °F 28.9 °F 60% 29.63 in 10.0 mi SSW 15.0 mph - N/A   Clear
10:54 AM 46.9 °F - 28.9 °F 50% 29.64 in 10.0 mi SSW 10.4 mph - N/A   Clear
11:54 AM 51.1 °F - 28.9 °F 43% 29.64 in 10.0 mi SW 12.7 mph - N/A   Clear
12:54 PM 55.0 °F - 30.0 °F 38% 29.63 in 10.0 mi SW 12.7 mph - N/A   Clear
1:54 PM 57.2 °F - 30.2 °F 36% 29.60 in 10.0 mi West 9.2 mph - N/A   Clear
2:54 PM 57.0 °F - 30.9 °F 37% 29.63 in 10.0 mi West 8.1 mph - N/A   Clear
3:54 PM 53.1 °F - 33.1 °F 47% 29.65 in 10.0 mi North 6.9 mph - N/A   Clear
4:54 PM 45.0 °F 42.6 °F 33.1 °F 63% 29.68 in 9.0 mi NW 4.6 mph - N/A   Clear
5:54 PM 42.1 °F 40.2 °F 30.9 °F 65% 29.70 in 10.0 mi NW 3.5 mph - N/A   Clear
6:54 PM 41.0 °F 34.7 °F 32.0 °F 70% 29.72 in 10.0 mi WNW 10.4 mph - N/A   Clear
7:54 PM 39.9 °F 34.5 °F 32.0 °F 73% 29.73 in 10.0 mi West 8.1 mph - N/A   Clear
8:54 PM 37.9 °F 31.5 °F 32.0 °F 79% 29.74 in 10.0 mi NW 9.2 mph - N/A   Clear
9:54 PM 36.0 °F 27.5 °F 32.0 °F 86% 29.76 in 10.0 mi NW 12.7 mph - N/A   Clear
10:27 PM 33.8 °F 24.3 °F 30.2 °F 87% 29.72 in 7.0 mi NW 13.8 mph - N/A   Scattered Clouds
10:36 PM 33.8 °F 24.3 °F 30.2 °F 87% 29.71 in 5.0 mi NW 13.8 mph - N/A   Mostly Cloudy
10:54 PM 33.8 °F 26.4 °F 30.2 °F 87% 29.72 in 3.0 mi WNW 9.2 mph - N/A   Overcast
11:54 PM 33.1 °F 25.5 °F 30.9 °F 92% 29.77 in 4.0 mi NNW 9.2 mph - N/A   Overcast